Regional Weather Roundup
Issued by NWS

Home | Current Version | Previous Version | Text Only | Print | Product List | Glossary On
Versions: 1 2 3 4 5 6 7 8 9 10 11 12 13 14 15 16 17 18 19 20 21 22 23 24 25 26 27
000
ASUS42 KKEY 261010
RWRKEY

FLORIDA REGIONAL WEATHER ROUNDUP FOR THE FLORIDA KEYS
NATIONAL WEATHER SERVICE KEY WEST FLORIDA
600 AM EDT FRI AUG 26 2016

...SOUTH FLORIDA AND THE KEYS...

CITY           SKY/WX    TMP DP  RH WIND       PRES   REMARKS
FORT MYERS     FAIR      77  75  93 E5        29.96R
SW REGIONAL AP LGT RAIN  78  74  87 NE6       29.96S
NAPLES         FAIR      78  76  93 NE6       29.95R
MIAMI          TSTM      79  78  97 CALM      29.94S
WEST KENDALL   LGT RAIN  76  76 100 CALM      29.94S
HOMESTEAD      FAIR      78  76  93 NW3       29.93S
MARATHON       LGT RAIN  81  76  84 E5        29.92F
BOCA CHICA NAS CLOUDY    84  79  85 MISG      29.93S HX  96
KEY WEST INTL  FAIR      81  78  91 E6        29.93F

...INTERNATIONAL WEATHER...

CITY           SKY/WX    TMP DP  RH WIND       PRES   REMARKS
NASSAU BAHAMAS PTCLDY    81  77  89 CALM      29.92R
CANCUN MEXICO  MOCLDY    77  77 100 CALM      29.89F
COZUMEL MEXICO   N/A    N/A N/A N/A MISG        N/A

ADJACENT COASTAL WATERS...

STATION/POSITION TIME  SKY/WX   TEMP    WIND        PRES    WAVE
                                AIR SEA DIR/SP/G            HT/PER
                 (UTC)          (F)     (DEG/KT/KT) (MB)    (FT/S)
PULASKI SHOAL LI 1000            85      90/ 14/ 15 1013.8R
SAND KEY         0950            82     120/  8/ 11 1013.8R
LONG KEY         0900            82 88   40/  9/ 10 1013.9R
FOWEY ROCKS      1000            83 86   50/  2/  2 1014.3R

$$




USA.gov is the U.S. government's official web portal to all federal, state and local government web resources and services.